TimeCDT,TemperatureF,Dew PointF,Humidity,Sea Level PressureIn,VisibilityMPH,Wind Direction,Wind SpeedMPH,Gust SpeedMPH,PrecipitationIn,Events,Conditions,WindDirDegrees,DateUTC
12:15 AM,42.1,40.5,94,30.32,10.0,Calm,Calm,-,N/A,,Clear,0,2013-05-26 05:15:00
12:35 AM,40.8,38.1,90,30.32,10.0,Calm,Calm,-,N/A,,Clear,0,2013-05-26 05:35:00
12:55 AM,40.6,38.5,92,30.32,10.0,Calm,Calm,-,N/A,,Clear,0,2013-05-26 05:55:00
1:15 AM,39.7,37.9,93,30.32,10.0,Calm,Calm,-,N/A,,Clear,0,2013-05-26 06:15:00
1:35 AM,38.3,36.7,94,30.32,10.0,Calm,Calm,-,N/A,,Clear,0,2013-05-26 06:35:00
1:55 AM,37.8,36.3,95,30.32,10.0,Calm,Calm,-,N/A,,Clear,0,2013-05-26 06:55:00
2:15 AM,37.4,36.0,95,30.33,10.0,West,3.5,-,N/A,,Clear,280,2013-05-26 07:15:00
2:35 AM,36.3,34.9,95,30.31,10.0,Calm,Calm,-,N/A,,Clear,0,2013-05-26 07:35:00
2:55 AM,37.4,36.9,98,30.31,7.0,Calm,Calm,-,N/A,,Clear,0,2013-05-26 07:55:00
3:15 AM,36.5,35.2,95,30.31,7.0,Calm,Calm,-,N/A,,Clear,0,2013-05-26 08:15:00
3:35 AM,36.5,35.1,95,30.31,10.0,Calm,Calm,-,N/A,,Clear,0,2013-05-26 08:35:00
3:55 AM,35.8,34.7,96,30.32,10.0,Calm,Calm,-,N/A,,Clear,0,2013-05-26 08:55:00
4:15 AM,36.1,35.6,98,30.31,10.0,Calm,Calm,-,N/A,,Clear,0,2013-05-26 09:15:00
4:35 AM,35.1,34.7,99,30.31,3.0,Calm,Calm,-,N/A,,Clear,0,2013-05-26 09:35:00
4:55 AM,35.1,34.7,99,30.32,10.0,Calm,Calm,-,N/A,,Clear,0,2013-05-26 09:55:00
5:15 AM,34.7,34.0,97,30.33,10.0,Calm,Calm,-,N/A,,Clear,0,2013-05-26 10:15:00
5:35 AM,35.8,35.2,98,30.34,10.0,Calm,Calm,-,N/A,,Clear,0,2013-05-26 10:35:00
5:55 AM,36.3,35.4,97,30.34,10.0,Calm,Calm,-,N/A,,Clear,0,2013-05-26 10:55:00
6:15 AM,35.8,34.9,97,30.35,10.0,Calm,Calm,-,N/A,,Clear,0,2013-05-26 11:15:00
6:35 AM,39.7,38.5,95,30.36,10.0,Calm,Calm,-,N/A,,Clear,0,2013-05-26 11:35:00
6:55 AM,44.4,41.2,88,30.36,10.0,Calm,Calm,-,N/A,,Clear,0,2013-05-26 11:55:00
7:15 AM,48.0,43.0,83,30.35,10.0,Calm,Calm,-,N/A,,Clear,0,2013-05-26 12:15:00
7:35 AM,52.0,39.6,63,30.34,10.0,ENE,6.9,-,N/A,,Clear,70,2013-05-26 12:35:00
7:55 AM,52.7,37.9,57,30.34,10.0,ENE,6.9,-,N/A,,Clear,60,2013-05-26 12:55:00
8:15 AM,53.6,36.7,53,30.35,10.0,East,6.9,-,N/A,,Clear,90,2013-05-26 13:15:00
8:35 AM,55.0,36.7,50,30.35,10.0,East,6.9,-,N/A,,Clear,90,2013-05-26 13:35:00
8:55 AM,56.7,34.5,43,30.34,10.0,ENE,10.4,-,N/A,,Clear,70,2013-05-26 13:55:00
9:15 AM,57.6,34.7,42,30.35,10.0,East,8.1,-,N/A,,Clear,90,2013-05-26 14:15:00
9:35 AM,57.7,32.7,39,30.34,10.0,ENE,8.1,16.1,N/A,,Clear,70,2013-05-26 14:35:00
9:55 AM,58.1,34.2,41,30.34,10.0,ENE,9.2,-,N/A,,Clear,70,2013-05-26 14:55:00
10:15 AM,59.0,34.2,39,30.34,10.0,ENE,8.1,-,N/A,,Clear,60,2013-05-26 15:15:00
10:35 AM,60.4,34.5,38,30.33,10.0,East,8.1,-,N/A,,Clear,90,2013-05-26 15:35:00
10:55 AM,60.4,32.9,36,30.34,10.0,ENE,6.9,-,N/A,,Clear,70,2013-05-26 15:55:00
11:15 AM,61.0,31.6,33,30.34,10.0,ESE,10.4,-,N/A,,Clear,110,2013-05-26 16:15:00
11:35 AM,61.2,32.5,34,30.33,10.0,ENE,9.2,-,N/A,,Clear,70,2013-05-26 16:35:00
11:55 AM,62.6,33.4,34,30.33,10.0,ENE,11.5,17.3,N/A,,Clear,70,2013-05-26 16:55:00
12:15 PM,62.4,33.3,34,30.33,10.0,East,11.5,-,N/A,,Clear,100,2013-05-26 17:15:00
12:35 PM,61.7,33.1,34,30.32,10.0,East,9.2,-,N/A,,Clear,80,2013-05-26 17:35:00
12:55 PM,61.5,33.6,35,30.32,10.0,ESE,8.1,-,N/A,,Clear,110,2013-05-26 17:55:00
1:15 PM,62.6,35.2,36,30.31,10.0,East,8.1,-,N/A,,Clear,80,2013-05-26 18:15:00
1:35 PM,62.8,36.3,37,30.31,10.0,East,9.2,-,N/A,,Clear,90,2013-05-26 18:35:00
1:55 PM,62.6,36.3,38,30.31,10.0,ESE,9.2,-,N/A,,Clear,110,2013-05-26 18:55:00
2:15 PM,60.8,35.8,39,30.30,10.0,East,8.1,-,N/A,,Clear,80,2013-05-26 19:15:00
2:35 PM,62.1,37.9,41,30.30,10.0,ESE,8.1,-,N/A,,Clear,110,2013-05-26 19:35:00
2:55 PM,62.4,38.1,41,30.29,10.0,East,9.2,-,N/A,,Clear,100,2013-05-26 19:55:00
3:15 PM,61.9,38.8,43,30.29,10.0,ESE,9.2,-,N/A,,Clear,110,2013-05-26 20:15:00
3:35 PM,60.8,39.0,45,30.28,10.0,ESE,6.9,-,N/A,,Clear,110,2013-05-26 20:35:00
3:55 PM,61.2,39.2,44,30.28,10.0,SE,9.2,-,N/A,,Clear,130,2013-05-26 20:55:00
4:15 PM,61.3,39.7,45,30.27,10.0,ESE,6.9,-,N/A,,Clear,120,2013-05-26 21:15:00
4:35 PM,61.9,39.7,44,30.27,10.0,ESE,6.9,-,N/A,,Clear,120,2013-05-26 21:35:00
4:55 PM,60.8,40.3,47,30.27,10.0,East,8.1,-,N/A,,Clear,100,2013-05-26 21:55:00
5:15 PM,59.7,40.8,50,30.26,10.0,ESE,6.9,-,N/A,,Clear,110,2013-05-26 22:15:00
5:35 PM,59.5,41.5,51,30.25,10.0,East,3.5,-,N/A,,Clear,90,2013-05-26 22:35:00
5:55 PM,59.2,39.4,48,30.24,10.0,ESE,6.9,-,N/A,,Clear,110,2013-05-26 22:55:00
6:15 PM,59.0,39.9,49,30.23,10.0,East,4.6,-,N/A,,Clear,100,2013-05-26 23:15:00
6:35 PM,58.3,40.5,52,30.23,10.0,East,5.8,-,N/A,,Clear,80,2013-05-26 23:35:00
6:55 PM,57.6,40.5,53,30.23,10.0,East,6.9,-,N/A,,Clear,80,2013-05-26 23:55:00
7:15 PM,57.4,39.4,51,30.22,10.0,East,4.6,-,N/A,,Clear,100,2013-05-27 00:15:00
7:35 PM,57.4,37.8,48,30.22,10.0,East,5.8,-,N/A,,Clear,90,2013-05-27 00:35:00
7:55 PM,56.1,37.6,50,30.22,10.0,East,4.6,-,N/A,,Clear,90,2013-05-27 00:55:00
8:15 PM,54.7,37.8,53,30.22,10.0,East,3.5,-,N/A,,Clear,100,2013-05-27 01:15:00
8:35 PM,52.0,39.0,61,30.23,10.0,Calm,Calm,-,N/A,,Clear,0,2013-05-27 01:35:00
8:55 PM,47.1,39.6,75,30.24,10.0,Calm,Calm,-,N/A,,Clear,0,2013-05-27 01:55:00
9:15 PM,46.4,39.4,77,30.24,10.0,Calm,Calm,-,N/A,,Clear,0,2013-05-27 02:15:00
9:35 PM,46.0,39.9,79,30.24,10.0,Calm,Calm,-,N/A,,Clear,0,2013-05-27 02:35:00
9:55 PM,44.4,38.7,80,30.24,10.0,Calm,Calm,-,N/A,,Clear,0,2013-05-27 02:55:00
10:15 PM,42.8,40.1,90,30.23,10.0,Calm,Calm,-,N/A,,Clear,0,2013-05-27 03:15:00
10:35 PM,42.3,38.5,86,30.22,10.0,Calm,Calm,-,N/A,,Clear,0,2013-05-27 03:35:00
10:55 PM,41.7,39.2,91,30.21,10.0,Calm,Calm,-,N/A,,Clear,0,2013-05-27 03:55:00
11:15 PM,41.7,38.8,89,30.21,10.0,Calm,Calm,-,N/A,,Clear,0,2013-05-27 04:15:00
11:35 PM,41.0,38.1,89,30.22,10.0,Calm,Calm,-,N/A,,Clear,0,2013-05-27 04:35:00
11:55 PM,41.0,38.1,89,30.22,10.0,Calm,Calm,-,N/A,,Clear,0,2013-05-27 04:55:00